Etusivu
METAR-TAF:

METAR-TAF

Lentoasemat :

Rome State Airport

Rome, Oregon, Yhdysvallat

Leveyspiiri: 42-35-26N, Pituuspiiri: 117-51-52W, korkeus merenpinnasta: 1234 m

Tämänhetkinen sää

Tämä raportti tehtiin 22 minuuttia sitten, kello 18.52 UTC
tyyntä
Lämpötila 8°C
Kosteus 42%
Ilmanpaine 1021 hPa

METAR: KREO 121852Z AUTO 00000KT 08/M04 A3016 RMK AO1 SLP223 T00781044

Aika: 12:14 (19:14 UTC)


TAF: puuttuu

Säähavainnot ja -ennusteet yli 4000 lentoasemalta (METAR- ja TAF-raportit).

Käytössä olevat sääasemat on merkitty karttaan keltaisilla ja punaisilla pisteillä.

Aseta hiiri pisteen päälle nähdäksesi sääaseman nimen.

Klikkaa sitten nähdäksesi säähavainnot ja -ennusteet.

Kartan vaihtaminen: klikkaa mustalla rastilla varustettuja vihreitä pisteitä, niin voit zoomata sisään; viivalla varustettua vihreää pistettä, niin voit zoomata ulos tai vihreitä nuolia, niin pääset viereisille kartoille.


METAR-TAF: